Friday, August 22, 2014
23:41 UTC
  |  Log In   |  Register Free
Airport Search:

Farmington Regional Airport
(KFAM)

Farmington Regional Airport Diagram
No Airport Diagram Available

FAA data valid effective July 24, 2014 until September 18, 2014 (unless otherwise noted).

 
 
 
 
 
 
 
 
 
 
 
 
 
 

Current Aviation Weather for Farmington Regional Airport (KFAM)

The most recent METAR observation for KFAM was updated at: 1835 UTC
METAR Summary (Translated METAR)
KFAM
281835Z AUTO 34009KT 10SM FEW042 SCT048 BKN055 25/15 A3012 RMK AO1
KSAR
(41.6 nm NE from KFAM)
281835Z AUTO 33011G15KT 10SM SCT037 BKN044 BKN050 25/16 A3009 RMK AO2
TAF
No TAF information found within 50 nm of KFAM
  Airport Weather Conditions for KFAM

 Current Weather at FAM
93° F
Fair
Southeast winds at 5.8 mph
FAM NOAA Radar

Pressure: 29.97 in
Humidity: 53%
Wind: Southeast at 5.8 MPH (5 KT)
Dew Point: 73.4°F
Visibility: 10.00 mi


Airport Weather Forecast for KFAM

Translated METAR and TAF for KFAM
Translated METAR for KFAM (2335 UTC 22 August 2014)
found at http://aviationweather.gov/adds/metars/
 
METAR text: KFAM 222315Z AUTO 13005KT 10SM CLR 33/23 A2997 RMK AO1
Conditions at: KFAM (FARMINGTON , MO, US) observed 2315 UTC 22 August 2014
Temperature: 33.0°C (91°F)
Dewpoint: 23.0°C (73°F) [RH = 56%]
Pressure (altimeter): 29.97 inches Hg (1015.0 mb)
Winds: from the SE (130 degrees) at 6 MPH (5 knots; 2.6 m/s)
Visibility: 10 or more miles (16+ km)
Ceiling: at least 12,000 feet AGL
Clouds: sky clear below 12,000 feet AGL
Weather: automated observation with no human augmentation;
there may or may not be significant weather present at this time
Translated TAF for KFAM

There is no translated TAF available for this airport

Find All Airport Services Find A Hotel Find A Rental Car Find A Golf Course Find A Restaurant $100 Hamburger



FBO's on the Field
FBO Company Facility Photos Services Transportation Aviation Fuel Prices: Prices include tax
Catering Weather Repair Courtesy Rental Type 100LL JetA JetA+ MOGAS 8087
 
Farmington Regional Airport

This FBO has not yet been rated
FS:Shell
Last Updated: Jul-25
Login to update fuel prices
SS:
Contact Farmington Regional AirportMore FBO Information
 
Add another FBO Facility Photos Catering Weather Repair Courtesy Rental Type 100LL JetA JetA+ MOGAS 8087
Services Transportation Aviation Fuel Prices: Prices include tax


GlobalAir.com Airport Resource Center model-print
model-print
model-print
model-print